Weather History for Leadville, CO

Change the Weather History Date:

Sunday, November 11, 2012

  Actual Average Record
Temperature  
Mean Temperature 10 °F -  
Max Temperature 13 °F 38 °F 59 °F (1980)
Min Temperature 6 °F 14 °F 1 °F (2000)
Degree Days  
Heating Degree Days 55 39  
Month to date heating degree days 363 402  
Since 1 July heating degree days 2323 2591  
Cooling Degree Days 0 0  
Month to date cooling degree days 0 0  
Year to date cooling degree days 0 0  
Moisture  
Dew Point 1 °F    
Average Humidity 69    
Maximum Humidity 80    
Minimum Humidity 57    
Precipitation  
Precipitation 0.04 in 0.03 in 0.22 in (1998)
Month to date precipitation 0.16 0.31  
Year to date precipitation 10.30 11.25  
Sea Level Pressure  
Sea Level Pressure 29.94 in    
Wind  
Wind Speed 11 mph (NW)    
Max Wind Speed 30 mph    
Max Gust Speed 37 mph    
Visibility 4 miles    
Events Fog , Snow    
T = Trace of Precipitation, MM = Missing Value Source: NWS Daily Summary

Daily Weather History Graph

Daily Weather History Graph

Search for Another Location

Airport:

Trip Planner

Search our weather history database for the weather conditions in past years. The results will help you decide how hot, cold, wet, or windy it might be!

Date:

Astronomy

Nov. 11, 2012 Rise Set
Actual Time 6:44 AM MST 4:53 PM MST
Civil Twilight 6:16 AM MST 5:21 PM MST
Nautical Twilight 5:44 AM MST 5:54 PM MST
Astronomical Twilight 5:12 AM MST 6:25 PM MST
Moon 4:02 AM MST (11/11) 3:18 PM MST (11/11)
Length of Visible Light 11h 05m
Length of Day
10h 08m
Waning Crescent, 7% of the Moon is Illuminated
Nov 11
Waning Crescent
Nov 13
New
Nov 20
First Quarter
Nov 28
Full
Dec 6
Last Quarter

Hourly Weather History & Observations

Time (MST) Temp. Windchill Dew Point Humidity Pressure Visibility Wind Dir Wind Speed Gust Speed Precip Events Conditions
12:53 AM 9.0 °F -3.2 °F 1.0 °F 70% 29.66 in 10.0 mi NE 8.1 mph - N/A   Overcast
1:23 AM 10.4 °F -6.0 °F 3.2 °F 73% 29.69 in 2.0 mi North 15.0 mph 20.7 mph 0.00 in Snow Light Snow
1:30 AM 8.6 °F -7.0 °F 3.2 °F 79% 29.69 in 1.2 mi North 12.7 mph 20.7 mph 0.00 in Snow Light Snow
1:38 AM 8.6 °F -7.7 °F 3.2 °F 79% 29.70 in 0.8 mi North 13.8 mph - 0.00 in Snow Light Snow
1:48 AM 8.6 °F -7.0 °F 5.0 °F 85% 29.70 in 0.5 mi North 12.7 mph 18.4 mph 0.01 in Fog , Snow Snow
1:53 AM 9.0 °F -5.9 °F 5.0 °F 84% 29.69 in 0.8 mi NNE 11.5 mph - 0.01 in Snow Light Snow
2:02 AM 8.6 °F -4.7 °F 3.2 °F 79% 29.70 in 2.0 mi NNE 9.2 mph - 0.00 in Snow Light Snow
2:10 AM 8.6 °F -5.5 °F 3.2 °F 79% 29.70 in 8.0 mi NNE 10.4 mph - 0.00 in   Overcast
2:53 AM 9.0 °F -0.9 °F 1.0 °F 70% 29.71 in 10.0 mi North 5.8 mph - 0.00 in   Overcast
3:10 AM 8.6 °F -2.6 °F 1.4 °F 73% 29.71 in 10.0 mi North 6.9 mph - N/A   Overcast
3:51 AM 8.6 °F 0.1 °F 1.4 °F 73% 29.71 in 10.0 mi NNW 4.6 mph - N/A   Overcast
3:53 AM 8.1 °F -2.0 °F 1.0 °F 73% 29.73 in 10.0 mi NNW 5.8 mph - N/A   Overcast
4:53 AM 8.1 °F -7.7 °F 3.0 °F 80% 29.78 in 6.0 mi North 12.7 mph - 0.00 in   Haze
5:16 AM 6.8 °F -5.9 °F 3.2 °F 85% 29.74 in 7.0 mi NNW 8.1 mph - N/A   Overcast
5:53 AM 7.0 °F -3.3 °F 3.9 °F 87% 29.83 in 5.0 mi NW 5.8 mph - 0.00 in Snow Light Snow
6:06 AM 8.6 °F -1.3 °F 3.2 °F 79% 29.76 in 1.8 mi WNW 5.8 mph - 0.00 in Snow Light Snow
6:20 AM 6.8 °F -2.0 °F 3.2 °F 85% 29.76 in 3.0 mi NNW 4.6 mph - 0.01 in Snow Light Snow
6:53 AM 7.0 °F -1.7 °F 1.9 °F 80% 29.87 in 10.0 mi North 4.6 mph - 0.01 in   Overcast
7:53 AM 7.0 °F -1.7 °F -0.9 °F 70% 29.90 in 10.0 mi NNW 4.6 mph - N/A   Mostly Cloudy
8:53 AM 9.0 °F -11.0 °F -4.0 °F 56% 29.90 in 10.0 mi WNW 21.9 mph 31.1 mph N/A   Clear
9:22 AM 8.6 °F -6.3 °F -0.4 °F 67% 29.86 in 2.5 mi WNW 11.5 mph - 0.00 in Snow Light Snow
9:28 AM 8.6 °F -7.0 °F -2.2 °F 62% 29.86 in 7.0 mi NW 12.7 mph 17.3 mph 0.00 in   Mostly Cloudy
9:53 AM 8.1 °F -8.4 °F -4.0 °F 58% 29.95 in 10.0 mi WNW 13.8 mph 18.4 mph 0.00 in   Mostly Cloudy
10:34 AM 8.6 °F -5.5 °F -0.4 °F 67% 29.88 in 2.5 mi NNW 10.4 mph - 0.00 in Snow Light Snow
10:42 AM 8.6 °F -6.3 °F -2.2 °F 62% 29.88 in 8.0 mi NW 11.5 mph 20.7 mph 0.00 in   Overcast
10:53 AM 8.1 °F -6.2 °F -0.9 °F 67% 29.99 in 10.0 mi West 10.4 mph - 0.00 in   Overcast
11:17 AM 6.8 °F -8.6 °F 1.4 °F 79% 29.87 in 2.0 mi West 11.5 mph - 0.00 in Snow Light Snow
11:25 AM 8.6 °F -7.0 °F -0.4 °F 67% 29.88 in 3.0 mi West 12.7 mph 20.7 mph 0.00 in Snow Light Snow
11:53 AM 8.1 °F -5.3 °F -0.0 °F 70% 29.96 in 2.5 mi WNW 9.2 mph - 0.00 in Snow Light Snow
12:01 PM 8.6 °F -3.7 °F -0.4 °F 67% 29.88 in 3.0 mi WNW 8.1 mph - 0.00 in Snow Light Snow
12:27 PM 8.6 °F -8.3 °F -0.4 °F 67% 29.88 in 2.5 mi NW 15.0 mph 26.5 mph 0.00 in Snow Light Snow
12:35 PM 8.6 °F -5.5 °F -0.4 °F 67% 29.87 in 3.0 mi WNW 10.4 mph 18.4 mph 0.00 in Snow Light Snow
12:53 PM 9.0 °F -7.9 °F -0.9 °F 64% 29.97 in 5.0 mi WNW 15.0 mph 23.0 mph 0.00 in Snow Light Snow
1:02 PM 8.6 °F -5.5 °F 1.4 °F 73% 29.88 in 2.0 mi NW 10.4 mph 24.2 mph 0.00 in Snow Light Snow
1:11 PM 8.6 °F -10.5 °F -0.4 °F 67% 29.89 in 7.0 mi NW 19.6 mph 25.3 mph 0.00 in   Overcast
1:34 PM 8.6 °F -10.5 °F -0.4 °F 67% 29.89 in 2.0 mi West 19.6 mph 29.9 mph 0.00 in Snow Light Snow
1:41 PM 8.6 °F -7.0 °F 1.4 °F 73% 29.90 in 1.2 mi WNW 12.7 mph 26.5 mph 0.00 in Snow Light Snow
1:46 PM 8.6 °F -6.3 °F -0.4 °F 67% 29.90 in 3.0 mi WNW 11.5 mph 20.7 mph 0.00 in Snow Light Snow
1:53 PM 10.0 °F -8.6 °F -2.0 °F 58% 29.98 in 9.0 mi West 19.6 mph 24.2 mph 0.00 in   Overcast
2:15 PM 10.4 °F -6.6 °F -4.0 °F 52% 29.90 in 9.0 mi West 16.1 mph 34.5 mph N/A   Mostly Cloudy
2:37 PM 8.6 °F -9.5 °F -0.4 °F 67% 29.91 in 2.5 mi WNW 17.3 mph 26.5 mph 0.00 in Snow Light Snow
2:40 PM 8.6 °F -9.5 °F -0.4 °F 67% 29.91 in 3.0 mi WNW 17.3 mph 27.6 mph 0.00 in Snow Light Snow
2:53 PM 8.1 °F -10.7 °F -2.9 °F 61% 30.02 in 0.8 mi West 18.4 mph 34.5 mph 0.00 in Snow Light Snow
2:57 PM 6.8 °F -13.4 °F 1.4 °F 79% 29.92 in 0.2 mi West 20.7 mph 34.5 mph 0.00 in Snow Heavy Snow
3:08 PM 8.6 °F -8.9 °F -0.4 °F 67% 29.93 in 1.0 mi WNW 16.1 mph 25.3 mph 0.00 in Snow Light Snow
3:19 PM 8.6 °F -8.9 °F -0.4 °F 67% 29.93 in 3.0 mi WNW 16.1 mph 23.0 mph 0.00 in Snow Light Snow
3:53 PM 7.0 °F -13.1 °F -5.1 °F 58% 30.05 in 7.0 mi West 20.7 mph 32.2 mph 0.00 in   Mostly Cloudy
4:53 PM 7.0 °F -12.6 °F -2.9 °F 64% 30.09 in 10.0 mi WNW 19.6 mph 27.6 mph N/A   Overcast
5:53 PM 7.0 °F -11.0 °F -2.0 °F 67% 30.14 in 6.0 mi WNW 16.1 mph 25.3 mph 0.00 in Snow Light Snow
6:53 PM 7.0 °F -7.5 °F -0.0 °F 73% 30.17 in 4.0 mi NW 10.4 mph 20.7 mph 0.00 in Snow Light Snow
7:38 PM 6.8 °F -4.8 °F 1.4 °F 79% 30.06 in 2.5 mi NNW 6.9 mph 16.1 mph 0.00 in Snow Light Snow
7:45 PM 6.8 °F -4.8 °F 1.4 °F 79% 30.06 in 4.0 mi WNW 6.9 mph - 0.00 in Snow Light Snow
7:53 PM 7.0 °F -7.5 °F 1.0 °F 77% 30.21 in 5.0 mi NW 10.4 mph 16.1 mph 0.00 in Snow Light Snow
8:02 PM 6.8 °F -8.6 °F 1.4 °F 79% 30.07 in 1.8 mi WNW 11.5 mph 17.3 mph 0.00 in Snow Light Snow
8:16 PM 6.8 °F -4.8 °F 1.4 °F 79% 30.08 in 2.0 mi NW 6.9 mph 17.3 mph 0.00 in Snow Light Snow
8:31 PM 6.8 °F -3.5 °F 1.4 °F 79% 30.09 in 4.0 mi NW 5.8 mph - 0.00 in Snow Light Snow
8:51 PM 7.0 °F -3.3 °F 1.9 °F 80% 30.23 in 1.5 mi North 5.8 mph - 0.00 in Snow Light Snow
9:13 PM 6.8 °F -2.0 °F 3.2 °F 85% 30.12 in 1.0 mi North 4.6 mph - 0.01 in Snow Light Snow
9:35 PM 8.6 °F 2.0 °F 1.4 °F 73% 30.13 in 2.0 mi NNE 3.5 mph - 0.01 in Snow Light Snow
9:46 PM 6.8 °F -3.5 °F 1.4 °F 79% 30.14 in 2.0 mi North 5.8 mph - 0.01 in Snow Light Snow
9:53 PM 8.1 °F -3.2 °F 1.9 °F 76% 30.27 in 2.0 mi NNW 6.9 mph - 0.01 in Snow Light Snow
9:59 PM 8.6 °F -1.3 °F 1.4 °F 73% 30.14 in 1.5 mi North 5.8 mph - 0.00 in Snow Light Snow
10:25 PM 8.6 °F 0.1 °F 1.4 °F 73% 30.15 in 2.5 mi Variable 4.6 mph - 0.01 in Snow Light Snow
10:36 PM 8.6 °F -1.3 °F 1.4 °F 73% 30.16 in 5.0 mi North 5.8 mph - 0.01 in Snow Light Snow
10:51 PM 6.8 °F -3.5 °F 1.4 °F 79% 30.17 in 2.0 mi NW 5.8 mph - 0.01 in Snow Light Snow
10:53 PM 7.0 °F -3.3 °F 1.0 °F 77% 30.30 in 2.0 mi NW 5.8 mph - 0.01 in Snow Light Snow
11:25 PM 6.8 °F -8.6 °F 1.4 °F 79% 30.19 in 4.0 mi NW 11.5 mph 20.7 mph 0.00 in Snow Light Snow
11:53 PM 7.0 °F -7.5 °F -2.0 °F 67% 30.34 in 10.0 mi NNW 10.4 mph 18.4 mph 0.00 in   Overcast